Weather History for Marietta, GA

Change the Weather History Date:

Friday, August 9, 2013

  Actual Average Record
Temperature  
Mean Temperature 80 °F -  
Max Temperature 89 °F 85 °F 98 °F (2007)
Min Temperature 73 °F 68 °F 64 °F (1997)
Cooling Degree Days 16    
Growing Degree Days 30 (Base 50)    
Moisture  
Dew Point 74 °F    
Average Humidity 91    
Maximum Humidity 100    
Minimum Humidity 57    
Precipitation  
Precipitation 0.00 in - - ()
Sea Level Pressure  
Sea Level Pressure 30.06 in    
Wind  
Wind Speed 2 mph (SE)    
Max Wind Speed 10 mph    
Max Gust Speed -    
Visibility 6 miles    
Events      
Averages and records for this station are not official NWS values.
T = Trace of Precipitation, MM = Missing Value Source: NWS Daily Summary

Daily Weather History Graph

Daily Weather History Graph

Search for Another Location

Airport:

Trip Planner

Search our weather history database for the weather conditions in past years. The results will help you decide how hot, cold, wet, or windy it might be!

Date:

Astronomy

Aug. 09, 2013 Rise Set
Actual Time 6:55 AM EDT 8:30 PM EDT
Civil Twilight 6:28 AM EDT 8:57 PM EDT
Nautical Twilight 5:56 AM EDT 9:29 PM EDT
Astronomical Twilight 5:22 AM EDT 10:03 PM EDT
Moon 9:30 AM EDT (8/9) 9:52 PM EDT (8/9)
Length of Visible Light 14h 28m
Length of Day
13h 35m
Waxing Crescent, 7% of the Moon is Illuminated
Aug 9
Waxing Crescent
Aug 14
First Quarter
Aug 20
Full
Aug 28
Last Quarter
Sep 5
New

Hourly Weather History & Observations

Time (EDT) Temp. Heat Index Dew Point Humidity Pressure Visibility Wind Dir Wind Speed Gust Speed Precip Events Conditions
12:38 AM 75.2 °F - 75.2 °F 100% 30.05 in 10.0 mi NNE 2.3 mph - N/A   Clear
12:48 AM 75.2 °F - 75.2 °F 100% 30.05 in 10.0 mi NNE 3.5 mph - N/A   Clear
1:03 AM 75.2 °F - 75.2 °F 100% 30.05 in 1.5 mi NE 2.3 mph - N/A   Clear
1:08 AM 75.2 °F - 75.2 °F 100% 30.05 in 2.0 mi NE 2.3 mph - N/A   Clear
1:13 AM 75.2 °F - 75.2 °F 100% 30.05 in 9.0 mi Calm Calm - N/A   Clear
1:38 AM 73.4 °F - 73.4 °F 100% 30.05 in 5.0 mi Calm Calm - N/A   Drizzle
1:48 AM 73.4 °F - 73.4 °F 100% 30.05 in 2.0 mi Calm Calm - N/A   Drizzle
1:53 AM 73.4 °F - 73.4 °F 100% 30.05 in 2.5 mi Calm Calm - N/A   Drizzle
1:58 AM 74.1 °F - 74.1 °F 100% 30.03 in 3.0 mi Calm Calm - 0.00 in   Drizzle
2:13 AM 73.4 °F - 73.4 °F 100% 30.05 in 3.0 mi ENE 1.2 mph - N/A   Drizzle
2:18 AM 73.4 °F - 73.4 °F 100% 30.05 in 7.0 mi ESE 1.2 mph - N/A   Drizzle
2:38 AM 73.4 °F - 73.4 °F 100% 30.06 in 7.0 mi Calm Calm - N/A   Drizzle
2:48 AM 73.4 °F - 73.4 °F 100% 30.06 in 7.0 mi Calm Calm - N/A   Light Drizzle
2:58 AM 73.9 °F - 73.8 °F 99% 30.04 in 6.0 mi Calm Calm - 0.00 in   Light Drizzle
3:03 AM 73.4 °F - 73.4 °F 100% 30.06 in 3.0 mi Calm Calm - N/A   Light Drizzle
3:08 AM 73.4 °F - 73.4 °F 100% 30.06 in 1.8 mi East 1.2 mph - N/A   Drizzle
3:23 AM 73.4 °F - 73.4 °F 100% 30.06 in 2.5 mi Calm Calm - N/A   Light Drizzle
3:28 AM 73.4 °F - 73.4 °F 100% 30.06 in 4.0 mi Calm Calm - N/A   Light Drizzle
3:48 AM 73.4 °F - 73.4 °F 100% 30.05 in 2.0 mi East 2.3 mph - N/A   Light Drizzle
4:03 AM 73.4 °F - 73.4 °F 100% 30.06 in 6.0 mi North 1.2 mph - N/A   Light Drizzle
4:08 AM 73.4 °F - 73.4 °F 100% 30.06 in 8.0 mi Calm Calm - N/A   Light Drizzle
4:28 AM 73.4 °F - 73.4 °F 100% 30.05 in 4.0 mi ESE 2.3 mph - N/A   Light Drizzle
4:48 AM 73.4 °F - 73.4 °F 100% 30.06 in 1.8 mi Calm Calm - N/A   Light Drizzle
4:58 AM 73.4 °F - 73.4 °F 100% 30.04 in 1.5 mi Calm Calm - 0.00 in   Light Drizzle
5:13 AM 73.4 °F - 73.4 °F 100% 30.06 in 1.2 mi ESE 2.3 mph - N/A   Light Drizzle
5:18 AM 73.4 °F - 73.4 °F 100% 30.06 in 3.0 mi East 1.2 mph - N/A   Light Drizzle
5:28 AM 73.4 °F - 73.4 °F 100% 30.06 in 2.5 mi Calm Calm - N/A   Light Drizzle
5:33 AM 73.4 °F - 73.4 °F 100% 30.06 in 1.2 mi Calm Calm - N/A   Light Drizzle
5:56 AM 73.4 °F - 73.4 °F 100% 30.07 in 2.5 mi Calm Calm - N/A   Light Drizzle
5:58 AM 73.4 °F - 73.4 °F 100% 30.05 in 3.0 mi Calm Calm - 0.00 in   Light Drizzle
6:08 AM 73.4 °F - 73.4 °F 100% 30.07 in 2.5 mi ENE 1.2 mph - N/A   Light Drizzle
6:23 AM 73.4 °F - 73.4 °F 100% 30.07 in 1.0 mi Calm Calm - N/A   Light Drizzle
6:38 AM 73.4 °F - 73.4 °F 100% 30.07 in 3.0 mi Calm Calm - N/A   Light Drizzle
6:43 AM 73.4 °F - 73.4 °F 100% 30.07 in 3.0 mi NNE 1.2 mph - N/A   Light Drizzle
6:53 AM 73.4 °F - 73.4 °F 100% 30.08 in 1.8 mi NNE 1.2 mph - N/A   Light Drizzle
7:01 AM 73.4 °F - 73.4 °F 100% 30.08 in 5.0 mi NE 2.3 mph - N/A   Overcast
7:58 AM 73.9 °F - 73.9 °F 100% 30.08 in 6.0 mi Calm Calm - N/A   Mostly Cloudy
8:58 AM 76.6 °F - 75.9 °F 98% 30.08 in 7.0 mi Variable 3.5 mph - N/A   Mostly Cloudy
9:58 AM 80.2 °F 85.7 °F 75.6 °F 86% 30.09 in 7.0 mi South 3.5 mph - N/A   Mostly Cloudy
10:54 AM 82.9 °F 89.9 °F 74.7 °F 76% 30.09 in 10.0 mi Variable 5.8 mph - N/A   Mostly Cloudy
11:13 AM 82.4 °F 89.5 °F 75.2 °F 79% 30.13 in 10.0 mi SW 6.9 mph - N/A   Mostly Cloudy
11:51 AM 82.4 °F 88.2 °F 73.4 °F 74% 30.13 in 10.0 mi SSW 6.9 mph - N/A   Mostly Cloudy
11:58 AM 82.0 °F 88.1 °F 74.3 °F 77% 30.10 in 10.0 mi SW 8.1 mph - N/A   Mostly Cloudy
12:58 PM 84.4 °F 91.3 °F 73.8 °F 70% 30.08 in 10.0 mi SSW 8.1 mph - N/A   Mostly Cloudy
1:58 PM 86.2 °F 93.8 °F 73.8 °F 66% 30.07 in 10.0 mi South 10.4 mph - N/A   Mostly Cloudy
2:58 PM 86.9 °F 94.5 °F 73.2 °F 64% 30.06 in 10.0 mi SSW 8.1 mph - N/A   Mostly Cloudy
3:58 PM 88.2 °F 94.1 °F 71.1 °F 57% 30.04 in 10.0 mi SSW 5.8 mph - N/A   Mostly Cloudy
4:58 PM 88.2 °F 95.5 °F 72.5 °F 60% 30.03 in 10.0 mi South 5.8 mph - N/A   Mostly Cloudy
5:58 PM 86.2 °F 94.6 °F 74.7 °F 68% 30.03 in 10.0 mi Variable 2.3 mph - N/A   Scattered Clouds
6:58 PM 85.3 °F 92.2 °F 73.0 °F 67% 30.03 in 10.0 mi SW 3.5 mph - N/A   Scattered Clouds
7:58 PM 85.5 °F 92.2 °F 73.0 °F 66% 30.04 in 10.0 mi South 2.3 mph - N/A   Mostly Cloudy
8:58 PM 81.9 °F 87.7 °F 74.1 °F 77% 30.05 in 10.0 mi South 4.6 mph - N/A   Scattered Clouds
9:58 PM 81.0 °F 86.2 °F 73.8 °F 79% 30.08 in 10.0 mi SSW 3.5 mph - N/A   Scattered Clouds
10:58 PM 79.7 °F - 73.8 °F 82% 30.10 in 10.0 mi SSW 3.5 mph - N/A   Mostly Cloudy
11:58 PM 78.1 °F - 73.4 °F 85% 30.10 in 10.0 mi Calm Calm - N/A   Clear